Location: ??????
(55.7522°N, 37.6156°E)
Time: 18:02:08
(UTC+00:00)

CZ-2C R/B - Pass Details

Date: 14 June 2025
Orbit: 701 x 903 km, 98.2° (Epoch: 13 July)

Event Time Altitude Azimuth Distance (km) Brightness Sun altitude
Rises 22:03:58 0° 17° (NNE) 3,464 8.4 -10.6°
Reaches altitude 10° 22:06:31 10° 24° (NNE) 2,496 7.1 -10.6°
Maximum altitude 22:11:51 47° 97° (E) 1,090 3.8 -10.4°
Enters shadow 22:16:36 11° 170° (S) 2,252 4.8 -10.3°
